When you browse on this site, cookies collect data to enhance your experience and personalize the content and advertising you see.
Visit our Privacy Policy to learn more. By continuing to use the site, you agree to this use of cookies and data.
  • In Sweden
  • List of Countries
  • For 7 days
  • Water Temperature
  • Weather Map
  • Weather Widgets
  • user-avatar
    Login

    Hourly Weather Ruposy

    Today, 16 September, Monday

    Time Temperature Precipitation Wind Pressure Humidity
    00:00 +10°C° 0.1 mm 4 mps 733 mmHg 92%
    01:00 +8°C° 0.1 mm 4 mps 732 mmHg 91%
    02:00 +7°C° 0.1 mm 4 mps 732 mmHg 91%
    03:00 +7°C° 0.1 mm 5 mps 732 mmHg 91%
    04:00 +7°C° 0.1 mm 5 mps 732 mmHg 91%
    05:00 +7°C° 0.1 mm 5 mps 732 mmHg 91%
    06:00 +7°C° 0 mm 5 mps 732 mmHg 90%
    07:00 +8°C° 0 mm 5 mps 732 mmHg 90%
    08:00 +8°C° 0 mm 5 mps 732 mmHg 89%
    09:00 +9°C° 0.2 mm 6 mps 732 mmHg 86%
    10:00 +10°C° 0.2 mm 6 mps 732 mmHg 83%
    11:00 +10°C° 0.2 mm 6 mps 732 mmHg 79%
    12:00 +11°C° 0.4 mm 7 mps 732 mmHg 78%
    13:00 +11°C° 0.4 mm 7 mps 732 mmHg 76%
    14:00 +12°C° 0.4 mm 7 mps 732 mmHg 75%
    15:00 +11°C° 0.6 mm 7 mps 732 mmHg 78%
    16:00 +10°C° 0.6 mm 6 mps 732 mmHg 82%
    17:00 +9°C° 0.6 mm 6 mps 732 mmHg 86%
    18:00 +9°C° 0.1 mm 6 mps 732 mmHg 87%
    19:00 +8°C° 0.1 mm 6 mps 732 mmHg 89%
    20:00 +8°C° 0.1 mm 5 mps 732 mmHg 90%
    21:00 +7°C° 0 mm 5 mps 732 mmHg 90%
    22:00 +7°C° 0 mm 5 mps 732 mmHg 90%
    23:00 +7°C° 0 mm 5 mps 732 mmHg 90%

    Tomorrow, 17 September, Tuesday

    Time Temperature Precipitation Wind Pressure Humidity
    00:00 +6°C° 0 mm 5 mps 732 mmHg 90%
    01:00 +6°C° 0 mm 5 mps 732 mmHg 90%
    02:00 +5°C° 0 mm 4 mps 732 mmHg 89%
    03:00 +5°C° 0 mm 4 mps 732 mmHg 89%
    04:00 +5°C° 0 mm 4 mps 732 mmHg 89%
    05:00 +5°C° 0 mm 4 mps 732 mmHg 89%
    06:00 +6°C° 0 mm 4 mps 732 mmHg 90%
    07:00 +6°C° 0 mm 4 mps 732 mmHg 90%
    08:00 +7°C° 0 mm 3 mps 732 mmHg 91%
    09:00 +7°C° 0.1 mm 4 mps 732 mmHg 90%
    10:00 +7°C° 0.1 mm 4 mps 732 mmHg 88%
    11:00 +8°C° 0.1 mm 4 mps 732 mmHg 87%
    12:00 +8°C° 0.1 mm 4 mps 732 mmHg 84%
    13:00 +8°C° 0.1 mm 4 mps 732 mmHg 81%
    14:00 +10°C° 0.1 mm 4 mps 732 mmHg 78%
    15:00 +10°C° 0.1 mm 4 mps 732 mmHg 79%
    16:00 +8°C° 0.1 mm 4 mps 731 mmHg 80%
    17:00 +9°C° 0.1 mm 3 mps 731 mmHg 80%
    18:00 +8°C° 0 mm 3 mps 731 mmHg 84%
    19:00 +7°C° 0 mm 2 mps 731 mmHg 89%
    20:00 +7°C° 0 mm 1 mps 731 mmHg 93%
    21:00 +6°C° 0.1 mm 1 mps 731 mmHg 93%
    22:00 +6°C° 0.1 mm 1 mps 731 mmHg 94%
    23:00 +6°C° 0.1 mm 1 mps 731 mmHg 95%

    Day after tomorrow, 18 September, Wednesday

    Time Temperature Precipitation Wind Pressure Humidity
    00:00 +6°C° 0.1 mm 1 mps 731 mmHg 95%
    01:00 +6°C° 0.1 mm 1 mps 731 mmHg 95%
    02:00 +6°C° 0.1 mm 1 mps 731 mmHg 95%
    03:00 +6°C° 0.3 mm 1 mps 731 mmHg 96%
    04:00 +6°C° 0.3 mm 1 mps 731 mmHg 96%
    05:00 +6°C° 0.3 mm 1 mps 731 mmHg 97%
    06:00 +5°C° 0.3 mm 2 mps 731 mmHg 95%
    07:00 +6°C° 0.3 mm 2 mps 732 mmHg 93%
    08:00 +6°C° 0.3 mm 2 mps 732 mmHg 92%
    09:00 +7°C° 0 mm 2 mps 733 mmHg 87%
    10:00 +8°C° 0 mm 3 mps 733 mmHg 81%
    11:00 +9°C° 0 mm 3 mps 734 mmHg 76%
    12:00 +10°C° 0.3 mm 3 mps 734 mmHg 76%
    13:00 +10°C° 0.3 mm 3 mps 734 mmHg 76%
    14:00 +10°C° 0.3 mm 3 mps 735 mmHg 76%
    15:00 +10°C° 0.3 mm 3 mps 735 mmHg 80%
    16:00 +9°C° 0.3 mm 3 mps 736 mmHg 83%
    17:00 +9°C° 0.3 mm 3 mps 736 mmHg 87%
    18:00 +8°C° 0.1 mm 2 mps 736 mmHg 89%
    19:00 +7°C° 0.1 mm 2 mps 737 mmHg 92%
    20:00 +6°C° 0.1 mm 2 mps 738 mmHg 95%
    21:00 +6°C° 0 mm 2 mps 738 mmHg 96%
    22:00 +5°C° 0 mm 2 mps 738 mmHg 96%
    23:00 +5°C° 0 mm 2 mps 739 mmHg 97%

    19 September, Thursday

    Time Temperature Precipitation Wind Pressure Humidity
    00:00 +4°C° 0 mm 2 mps 739 mmHg 97%
    01:00 +4°C° 0 mm 2 mps 740 mmHg 96%
    02:00 +3°C° 0 mm 2 mps 740 mmHg 96%
    03:00 +3°C° 0 mm 2 mps 740 mmHg 96%
    04:00 +2°C° 0 mm 2 mps 741 mmHg 96%
    05:00 +1°C° 0 mm 2 mps 741 mmHg 97%
    06:00 +2°C° 0 mm 2 mps 741 mmHg 95%
    07:00 +3°C° 0 mm 2 mps 742 mmHg 93%
    08:00 +4°C° 0 mm 2 mps 742 mmHg 91%
    09:00 +5°C° 0.1 mm 2 mps 743 mmHg 86%
    10:00 +6°C° 0.1 mm 2 mps 743 mmHg 82%
    11:00 +7°C° 0.1 mm 2 mps 744 mmHg 77%
    12:00 +7°C° 0.2 mm 2 mps 744 mmHg 75%
    13:00 +8°C° 0.2 mm 2 mps 744 mmHg 73%
    14:00 +8°C° 0.2 mm 2 mps 744 mmHg 70%
    15:00 +8°C° 0.1 mm 2 mps 744 mmHg 73%
    16:00 +7°C° 0.1 mm 2 mps 745 mmHg 75%
    17:00 +7°C° 0.1 mm 2 mps 745 mmHg 77%
    18:00 +6°C° 0 mm 2 mps 745 mmHg 82%
    19:00 +4°C° 0 mm 2 mps 745 mmHg 88%
    20:00 +3°C° 0 mm 2 mps 746 mmHg 93%
    21:00 +4°C° 0 mm 1 mps 746 mmHg 93%
    22:00 +3°C° 0 mm 1 mps 746 mmHg 94%
    23:00 +2°C° 0 mm 1 mps 746 mmHg 95%

    20 September, Friday

    Time Temperature Precipitation Wind Pressure Humidity
    00:00 +2°C° 0 mm 1 mps 747 mmHg 95%
    01:00 +2°C° 0 mm 1 mps 747 mmHg 95%
    02:00 +1°C° 0 mm 1 mps 747 mmHg 95%
    03:00 +1°C° 0 mm 1 mps 747 mmHg 95%
    04:00 +1°C° 0 mm 1 mps 747 mmHg 95%
    05:00 +1°C° 0 mm 1 mps 747 mmHg 95%
    06:00 +1°C° 0 mm 2 mps 747 mmHg 90%
    07:00 +2°C° 0 mm 2 mps 748 mmHg 85%
    08:00 +3°C° 0 mm 2 mps 748 mmHg 80%
    09:00 +5°C° 0 mm 2 mps 748 mmHg 74%
    10:00 +5°C° 0 mm 3 mps 749 mmHg 67%
    11:00 +8°C° 0 mm 3 mps 749 mmHg 61%
    12:00 +8°C° 0.2 mm 3 mps 749 mmHg 59%
    13:00 +9°C° 0.2 mm 3 mps 749 mmHg 56%
    14:00 +9°C° 0.2 mm 3 mps 749 mmHg 54%
    15:00 +8°C° 0 mm 3 mps 749 mmHg 58%
    16:00 +8°C° 0 mm 2 mps 749 mmHg 62%
    17:00 +7°C° 0 mm 2 mps 749 mmHg 66%
    18:00 +7°C° 0 mm 1 mps 750 mmHg 71%
    19:00 +5°C° 0 mm 1 mps 750 mmHg 77%
    20:00 +3°C° 0 mm 1 mps 750 mmHg 82%
    21:00 +3°C° 0 mm 1 mps 750 mmHg 83%
    22:00 +3°C° 0 mm 1 mps 750 mmHg 84%
    23:00 +2°C° 0 mm 1 mps 750 mmHg 84%

    21 September, Saturday

    Time Temperature Precipitation Wind Pressure Humidity
    00:00 +2°C° 0 mm 1 mps 750 mmHg 83%
    01:00 +3°C° 0 mm 1 mps 750 mmHg 82%
    02:00 +2°C° 0 mm 2 mps 750 mmHg 80%
    03:00 +2°C° 0 mm 2 mps 750 mmHg 82%
    04:00 +3°C° 0 mm 2 mps 750 mmHg 83%
    05:00 +2°C° 0 mm 3 mps 750 mmHg 84%
    06:00 +3°C° 0 mm 3 mps 750 mmHg 85%
    07:00 +3°C° 0 mm 3 mps 750 mmHg 86%
    08:00 +4°C° 0 mm 3 mps 749 mmHg 86%
    09:00 +4°C° 0.5 mm 4 mps 749 mmHg 89%
    10:00 +4°C° 0.5 mm 4 mps 749 mmHg 92%
    11:00 +4°C° 0.5 mm 4 mps 749 mmHg 95%
    12:00 +5°C° 0.6 mm 4 mps 748 mmHg 96%
    13:00 +5°C° 0.6 mm 3 mps 748 mmHg 96%
    14:00 +7°C° 0.6 mm 3 mps 748 mmHg 97%
    15:00 +8°C° 0.6 mm 3 mps 747 mmHg 97%
    16:00 +9°C° 0.6 mm 3 mps 747 mmHg 97%
    17:00 +9°C° 0.6 mm 3 mps 747 mmHg 97%
    18:00 +10°C° 0.1 mm 3 mps 747 mmHg 96%
    19:00 +10°C° 0.1 mm 4 mps 747 mmHg 96%
    20:00 +11°C° 0.1 mm 4 mps 747 mmHg 95%
    21:00 +10°C° 0 mm 4 mps 747 mmHg 95%
    22:00 +10°C° 0 mm 4 mps 747 mmHg 96%
    23:00 +10°C° 0 mm 3 mps 747 mmHg 97%
    Show more